Regional Weather Roundup
Issued by NWS

Home | Current Version | Previous Version | Graphics & Text | Print | Product List | Glossary On
Versions: 1 2 3 4 5 6 7 8 9 10 11 12 13 14 15 16 17 18 19 20 21 22 23 24 25 26 27 28 29 30 31 32 33 34 35 36 37 38 39 40 41 42 43 44 45 46 47 48 49 50
773
ASUS43 KLOT 191605
RWRIL

ILLINOIS REGIONAL WEATHER ROUNDUP
NATIONAL WEATHER SERVICE CHICAGO/ROMEOVILLE IL
1100 AM CDT TUE SEP 19 2017

NOTE: "FAIR" INDICATES FEW OR NO CLOUDS BELOW 12,000 FEET WITH NO
SIGNIFICANT WEATHER AND/OR OBSTRUCTIONS TO VISIBILITY.

* THESE STATIONS ARE NOT UNDER NWS QUALITY CONTROL. THEY ALSO MAY NOT
  REPORT WEATHER SUCH AS PRECIPITATION OR FOG.

ILZ001-002-007-009-015-016-024-191700-
NORTHWEST ILLINOIS

CITY           SKY/WX    TMP DP  RH WIND       PRES   REMARKS
MOLINE         SUNNY     71  64  78 S5        29.96S HAZE
STERLING*        N/A     66  65  96 E6        29.98S
SAVANNA*       CLOUDY    68  62  81 E6        29.98S
$$

ILZ003-004-008-010-011-017-018-191700-
NORTH CENTRAL ILLINOIS

CITY           SKY/WX    TMP DP  RH WIND       PRES   REMARKS
ROCKFORD       MOSUNNY   72  63  73 NE7       29.99S
FREEPORT*      PTSUNNY   68  64  87 E6        29.99F
ROCHELLE*      PTSUNNY   71  65  80 CALM      29.98F
DE KALB*       MOSUNNY   72  66  80 NE9       29.99S
PERU*          CLOUDY    68  63  85 CALM      29.98S HAZE
$$

ILZ005-006-012>014-019>023-191700-
NORTHEAST ILLINOIS

CITY           SKY/WX    TMP DP  RH WIND       PRES   REMARKS
CHICAGO-OHARE  CLOUDY    71  66  84 NE6       29.97S
CHICAGO-MIDWAY LGT RAIN  70  66  87 NE6       29.96F
AURORA         MOSUNNY   74  67  78 VRB3      29.97F
LANSING*       CLOUDY    72  68  88 NW5       29.96S
JOLIET*        MOSUNNY   76  67  74 CALM      29.97R
WAUKEGAN       CLOUDY    69  68  96 CALM      29.98S FOG
DUPAGE AIRPORT PTSUNNY   73  67  81 NE6       29.96F
KANKAKEE*      SUNNY     70  68  93 CALM      29.97S
WHEELING       CLOUDY    70  68  93 CALM      29.98F
MORRIS*        PTSUNNY   72  65  78 CALM      29.96S
ROMEOVILLE*    PTSUNNY   72  66  80 NE7       29.97S
NORTHERLY ISL    N/A     69  65  86 E3          N/A
$$

LMZ740>746-191700-
SOUTHERN LAKE MICHIGAN

STATION/POSITION SKY/WX   TEMP    WIND        PRES    VSBY  WAVE
                          AIR SEA DIR/SP/G                  HT/PER
                          (F)     (DEG/KT/KT) (MB)    (MI)  (FT/S)
SOUTHERN BUOY              67 68   80/ 10/ 12 1014.9          1/ 3
WILMETTE HARBOR            69 69   CALM  /  2   N/A           2/ 4
HARRISON CRIB              69      70/  3/  3   N/A
CALUMET HARBOR             69     350/  4/  6 1014.3R
BURNS HARBOR               68     330/  6/  7 1015.2R
MICHIGAN CITY              69     340/  5/  6   N/A
MICHIGAN CITY 6N           68 69  360/  6/  8   N/A           1/ 5
ST. JOSEPH                 70 69  110/  8/ 12 1014.8R         1
$$

ILZ025>027-034>036-040-047-049-050-058-095>099-191700-
WEST-CENTRAL ILLINOIS

CITY           SKY/WX    TMP DP  RH WIND       PRES   REMARKS
QUINCY         CLOUDY    69  67  93 E6        29.96F
GALESBURG*     PTSUNNY   69  69 100 CALM      29.98R
MACOMB*        CLOUDY    68  68 100 S3        30.00R
PITTSFIELD*    CLOUDY    68  68 100 CALM      29.99S
$$

ILZ028>032-037-038-041>044-048-051>054-059>061-191700-
CENTRAL ILLINOIS

CITY           SKY/WX    TMP DP  RH WIND       PRES   REMARKS
PONTIAC        CLOUDY    68  68  98 CALM      29.98S
BLOOMINGTON    PTSUNNY   73  65  75 VRB3      29.99S
DECATUR        PTSUNNY   73  69  87 NW3       29.98S
PEORIA         CLOUDY    72  67  84 CALM      29.97S
LACON*         CLOUDY    65  65 100 CALM      29.97S FOG
LINCOLN*       CLOUDY    69  69 100 CALM      29.97F FOG
SPRINGFIELD    MOSUNNY   76  69  79 CALM      29.97S
TAYLORVILLE    NOT AVBL
$$

ILZ033-039-045-046-055>057-062-063-191700-
EAST-CENTRAL ILLINOIS

CITY           SKY/WX    TMP DP  RH WIND       PRES   REMARKS
CHAMPAIGN      CLOUDY    70  66  87 CALM      29.98S
RANTOUL*       CLOUDY    72  69  89 W3        29.98S
MATTOON        PTSUNNY   75  68  78 S5        29.97S
PARIS*         CLOUDY    74  69  83 CALM      29.98F
$$

ILZ079-100>102-191700-
SOUTHWEST ILLINOIS

CITY           SKY/WX    TMP DP  RH WIND       PRES   REMARKS
ALTON          SUNNY     75  70  83 SE6       29.98S
CAHOKIA*       MOSUNNY   80  69  69 SE5       29.96F HX  83
SPARTA*        MOSUNNY   74  69  86 CALM      29.99F
$$

ILZ064>066-069>071-074>076-080>082-084>086-088>090-092>094-191700-
SOUTH-CENTRAL ILLINOIS

CITY           SKY/WX    TMP DP  RH WIND       PRES   REMARKS
CARBONDALE     SUNNY     79  71  76 N3        29.98F HX  82
CAIRO*         SUNNY     78  72  84 CALM      29.99R
EFFINGHAM*     MOSUNNY   78  69  73 CALM      29.99F
MARION         PTSUNNY   77  75  94 N5        30.00S
CENTRALIA*     MOSUNNY   78  71  78 CALM      29.98S HX  81
SALEM*         PTSUNNY   79  67  67 SE3       29.98S HX  81
METROPOLIS*    SUNNY     80  71  75 E3        29.99S HX  83
$$

ILZ067-068-072-073-078-083-087-091-191700-
SOUTHEAST ILLINOIS

CITY           SKY/WX    TMP DP  RH WIND       PRES   REMARKS
LAWRENCEVILLE  MOSUNNY   74  71  91 VRB6      29.98F
FLORA*         PTSUNNY   79  71  78 SE3       29.98F HX  81
FAIRFIELD*     CLOUDY    75  69  83 CALM      29.97F
HARRISBURG*    MOSUNNY   78  71  79 CALM      29.99S
ROBINSON*      PTSUNNY   73  69  88 S8        29.98F
CARMI*         PTSUNNY   75  72  90 CALM      29.98F
$$

ABBREVIATIONS USED IN REMARKS
   TC - TEMPERATURE IN CELSIUS
  WCI - WIND CHILL INDEX
   HX - HEAT INDEX
  VSB - VISIBILITY
$$





USA.gov is the U.S. government's official web portal to all federal, state and local government web resources and services.